Showing default

XINZHENGCHENG 02, 68412

Orbit data source: Space-Track

XINZHENGCHENG 02, 68412 is a payload satellite owned by IMI/CAS (CN) in LEO that was launched on Mon, 30 Mar 2026 UTC via a LIJIAN-2 launch vehicle from the Jiuquan Satellite Launch Center, China (JSC). Payload-class satellites include a variety of spacecraft equipped with specific instruments for various scientific and technological missions. These include communications satellites like Starlink; space stations such as the ISS; scientific satellites like the Hubble; Earth observation satellites from companies like Planet Labs, Umbra, and HawkEye 360; GPS; miniature CubeSats for education and research; and military/defense satellites.

Loading next visibility...
Identifier
68412, 2026-066A
Orbit
LEO
Country
Flag of CNCN / PRC
Related business
Manufacturer
IMI/CAS
Mission
Operational spacecraft
Bus & Motor
QINGZHOU, Unknown motor
Mass
4,200 kg wet, ~4,200 kg dry
Launch date (UTC)
2026-03-30 (3 months ago)
Launch vehicle
LIJIAN-2
Launch site
Jiuquan Satellite Launch Center, China (JSC)
Object type
Payload
Rocket body
Debris
Shape & HBR
Unknown shape, 2.7 m
Radar Cross Section
Large (>1 m²)

Expand to show TLE details & history
Last TLE update: 11 hours ago

TLE from 11 hours ago
0 XINZHENGCHENG 02
1 68412U 26066A   26171.38905049  .00000405  00000-0  40359-4 0  9990
2 68412  84.9663 225.7072 0023583 239.5758 120.3135 14.88410981 12208
Epoch: 2026-06-20T09:20Z
TLE epoch observation values (Epoch: 2026-06-20T09:20:13.962Z)
Latitude
-0.00005°
Longitude
177.04464°
Altitude
614.344 km
Speed
7.547 km/s
True Right ascension
15h 02m 49s
True Declination
0° 00' 00"
Sunlit
Object was in full shadow at epoch
Visualization orbit readout
Latitude
Unknown
Longitude
Unknown
Altitude
Unknown
Speed
Unknown
Apparent Right ascension
Unknown
Apparent Declination
Unknown
Sunlit
N/A
Visualization observer readout
Local Sidereal Time
07:18:35
Azimuth
Unknown
Elevation
Unknown
Doppler factor
Unknown
Orbital elements
Apogee altitude
616.28 km
Perigee altitude
583.367 km
Semi-major axis
6,977.961 km
Eccentricity
0.00236
Inclination
84.9663°
RAAN
225.7072°
Arg. of periapsis
239.5758°
True anomaly
120.54645°
Mean anomaly
120.3135°
Eccentric anomaly
120.43001°
Mean motion
3.72349 °/min
Orbital period
96.68 mins
BSTAR
0.000040359
Loading maneuver chart data...
Computing Atmospheric mass density...
Loading historical data...
Loading historical data...
Loading historical data...
Loading historical data...
Loading historical data...
Loading historical data...
Loading historical data...
Other satellites on launch #66 in the year 2026 (2026-03-30 UTC)

Documentation

Showing up to 5 results
|